EW2500 Weather Reports


time (UTC)temp
C
wind
direction
speed
KPH
gust
KPH
rain 1hr
cm
rain 24hr
cm
rain mn
cm
humidity
%
barometer
mb
20260504151100 17 199 0.0 19.3 0.00 0.00 0.00 38 1009.7
20260504150551 17 304 0.0 24.1 0.00 0.00 0.00 39 1009.6
20260504141120 16 204 1.6 25.7 0.00 0.00 0.00 38 1009.7
20260504140552 16 153 0.0 6.4 0.00 0.00 0.00 40 1009.7
20260504130555 14 264 1.6 17.7 0.00 0.00 0.00 43 1010.4
20260504110550 10 220 0.0 4.8 0.00 0.00 0.00 57 1010.6
20260504100548 7 235 0.0 0.0 0.00 0.00 0.00 62 1010.3
20260504081551 7 269 0.0 0.0 0.00 0.00 0.00 66 1009.8
20260504081044 7 263 0.0 0.0 0.00 0.00 0.00 64 1009.9
20260504080557 7 263 0.0 0.0 0.00 0.00 0.00 65 1009.8
20260504080110 7 261 0.0 0.0 0.00 0.00 0.00 64 1009.9
20260504070110 8 288 0.0 0.0 0.00 0.00 0.00 59 1009.6
20260504050609 6 266 0.0 0.0 0.00 0.00 0.00 69 1009.4
20260504045550 6 266 0.0 0.0 0.00 0.00 0.00 67 1009.3
20260504045042 6 266 0.0 0.0 0.00 0.00 0.00 66 1009.3
20260504044555 6 266 0.0 0.0 0.00 0.00 0.00 66 1009.4
20260504044108 6 266 0.0 0.0 0.00 0.00 0.00 66 1009.4
20260504043557 6 266 0.0 0.0 0.00 0.00 0.00 68 1009.4
20260504043048 6 266 0.0 0.0 0.00 0.00 0.00 68 1009.4
20260504042541 6 266 0.0 0.0 0.00 0.00 0.00 67 1009.3
20260504042055 6 266 0.0 0.0 0.00 0.00 0.00 71 1009.4
20260504041547 6 266 0.0 0.0 0.00 0.00 0.00 71 1009.4
20260504041040 6 266 0.0 0.0 0.00 0.00 0.00 70 1009.4
20260504040553 6 266 0.0 0.0 0.00 0.00 0.00 64 1009.4
20260504040043 6 266 0.0 0.0 0.00 0.00 0.00 66 1009.3
20260504035558 6 266 0.0 0.0 0.00 0.00 0.00 66 1009.2
20260504035048 6 266 0.0 0.0 0.00 0.00 0.00 67 1009.2
20260504034601 6 266 0.0 0.0 0.00 0.00 0.00 70 1009.3
20260504034052 6 266 0.0 0.0 0.00 0.00 0.00 69 1009.2
20260504033542 6 266 0.0 0.0 0.00 0.00 0.00 62 1009.2
20260504033057 6 266 0.0 0.0 0.00 0.00 0.00 61 1009.2
20260504032610 6 266 0.0 0.0 0.00 0.00 0.00 61 1009.2
20260504032103 6 266 0.0 0.0 0.00 0.00 0.00 60 1009.2
20260504031550 6 266 0.0 0.0 0.00 0.00 0.00 59 1009.1
20260504031103 6 266 0.0 0.0 0.00 0.00 0.00 63 1009.1
20260504030556 6 266 0.0 0.0 0.00 0.00 0.00 62 1009.1
20260504030049 7 266 0.0 0.0 0.00 0.00 0.00 65 1009.1
20260504025541 7 266 0.0 0.0 0.00 0.00 0.00 66 1009.1
20260504025116 7 266 0.0 0.0 0.00 0.00 0.00 61 1009.0
20260504024547 7 266 0.0 0.0 0.00 0.00 0.00 60 1009.1
20260504024059 7 266 0.0 0.0 0.00 0.00 0.00 60 1009.1
20260504023551 7 266 0.0 0.0 0.00 0.00 0.00 59 1009.1
20260504023040 7 266 0.0 0.0 0.00 0.00 0.00 59 1009.2
20260504022554 7 266 0.0 0.0 0.00 0.00 0.00 58 1009.2
20260504022105 7 266 0.0 0.0 0.00 0.00 0.00 54 1009.3
20260504021557 7 266 0.0 0.0 0.00 0.00 0.00 54 1009.2
20260504021051 8 266 0.0 0.0 0.00 0.00 0.00 52 1009.2
20260504020541 8 266 0.0 0.0 0.00 0.00 0.00 53 1009.1
20260504020054 8 266 0.0 0.0 0.00 0.00 0.00 55 1009.0
20260504015547 8 266 0.0 0.0 0.00 0.00 0.00 52 1009.0
20260504015100 8 266 0.0 0.0 0.00 0.00 0.00 51 1009.1
20260504014612 8 266 0.0 0.0 0.00 0.00 0.00 50 1009.0
20260504014044 8 266 0.0 0.0 0.00 0.00 0.00 49 1009.0
20260504013556 8 266 0.0 0.0 0.00 0.00 0.00 48 1009.0
20260504013049 9 266 0.0 0.0 0.00 0.00 0.00 48 1008.9
20260504012556 9 266 0.0 0.0 0.00 0.00 0.00 46 1009.0
20260504012106 9 266 0.0 0.0 0.00 0.00 0.00 46 1008.9
20260504011559 10 266 0.0 0.0 0.00 0.00 0.00 44 1008.8
20260504011049 10 266 0.0 0.0 0.00 0.00 0.00 43 1008.8
20260504010540 10 266 0.0 0.0 0.00 0.00 0.00 43 1008.7
20260504010053 10 266 0.0 0.0 0.00 0.00 0.00 42 1008.6
20260504005543 10 265 0.0 0.0 0.00 0.00 0.00 42 1008.5
20260504005055 10 265 0.0 0.0 0.00 0.00 0.00 41 1008.4
20260504004547 11 265 0.0 0.0 0.00 0.00 0.00 40 1008.3
20260504004040 11 266 0.0 0.0 0.00 0.00 0.00 40 1008.2
20260504003553 11 266 0.0 0.0 0.00 0.00 0.00 39 1008.2
20260504003045 11 266 0.0 0.0 0.00 0.00 0.00 37 1008.1
20260504002558 12 263 0.0 3.2 0.00 0.00 0.00 37 1008.1
20260504002049 12 284 0.0 3.2 0.00 0.00 0.00 35 1008.0
20260504001540 12 277 0.0 0.0 0.00 0.00 0.00 35 1007.9
20260504001052 12 275 0.0 0.0 0.00 0.00 0.00 35 1007.9
20260504000543 12 259 0.0 1.6 0.00 0.00 0.00 35 1007.8
20260504000117 12 252 0.0 3.2 0.00 0.00 0.00 35 1007.8
20260503235609 12 355 0.0 3.2 0.00 0.00 0.00 35 1007.7
20260503235040 12 284 0.0 6.4 0.00 0.00 0.00 36 1007.6
20260503234555 12 280 0.0 6.4 0.00 0.00 0.00 36 1007.5
20260503234109 12 288 0.0 3.2 0.00 0.00 0.00 33 1007.4
20260503233540 12 266 0.0 12.9 0.00 0.00 0.00 34 1007.4
20260503233048 12 269 0.0 16.1 0.00 0.00 0.00 33 1007.3
20260503232540 12 326 0.0 16.1 0.00 0.00 0.00 33 1007.1
20260503232052 12 294 0.0 0.0 0.00 0.00 0.00 33 1007.1
20260503231544 12 355 0.0 0.0 0.00 0.00 0.00 34 1007.2
20260503231057 12 250 0.0 0.0 0.00 0.00 0.00 33 1007.1
20260503230548 12 266 0.0 6.4 0.00 0.00 0.00 31 1007.1
20260503230101 12 289 0.0 6.4 0.00 0.00 0.00 32 1007.0
20260503225551 13 279 0.0 1.6 0.00 0.00 0.00 33 1006.9
20260503225044 13 355 0.0 1.6 0.00 0.00 0.00 32 1006.9
20260503224555 13 316 0.0 4.8 0.00 0.00 0.00 32 1006.8
20260503224049 13 275 0.0 11.3 0.00 0.00 0.00 32 1006.7
20260503223541 13 298 0.0 11.3 0.00 0.00 0.00 30 1006.8
20260503223054 13 284 0.0 22.5 0.00 0.00 0.00 31 1006.8
20260503222544 13 286 1.6 22.5 0.00 0.00 0.00 30 1006.8
20260503222056 13 240 0.0 12.9 0.00 0.00 0.00 32 1006.8
20260503221546 13 336 0.0 12.9 0.00 0.00 0.00 33 1006.8
20260503221058 13 288 1.6 8.0 0.00 0.00 0.00 31 1006.7
20260503220549 13 309 0.0 9.7 0.00 0.00 0.00 36 1006.7
20260503215553 13 230 0.0 6.4 0.00 0.00 0.00 34 1006.7
20260503215107 13 290 0.0 0.0 0.00 0.00 0.00 33 1006.8
20260503214601 13 264 0.0 3.2 0.00 0.00 0.00 32 1006.8
20260503214053 13 314 0.0 14.5 0.00 0.00 0.00 34 1006.9
20260503213545 13 320 0.0 24.1 0.00 0.00 0.00 34 1006.8
20260503213052 13 308 0.0 24.1 0.00 0.00 0.00 36 1006.7
20260503212607 13 315 0.0 4.8 0.00 0.00 0.00 34 1006.7
20260503212057 13 239 0.0 16.1 0.00 0.00 0.00 35 1006.7
20260503211548 13 259 1.6 16.1 0.00 0.00 0.00 34 1006.6
20260503211038 13 298 0.0 8.0 0.00 0.00 0.00 36 1006.7
20260503210551 13 273 0.0 22.5 0.00 0.00 0.00 34 1006.7
20260503210104 13 314 0.0 22.5 0.00 0.00 0.00 35 1006.8
20260503205555 13 318 0.0 4.8 0.00 0.00 0.00 35 1006.7
20260503205108 13 106 0.0 6.4 0.00 0.00 0.00 37 1006.8
20260503204600 13 267 1.6 14.5 0.00 0.00 0.00 37 1006.7
20260503204052 13 304 0.0 19.3 0.00 0.00 0.00 40 1006.6
20260503203542 13 289 1.6 19.3 0.00 0.00 0.00 38 1006.6
20260503203057 13 272 1.6 16.1 0.00 0.00 0.00 37 1006.6
20260503202548 13 312 1.6 16.1 0.00 0.00 0.00 38 1006.7
20260503202101 13 246 0.0 4.8 0.00 0.00 0.00 40 1006.6
20260503201551 12 223 0.0 11.3 0.00 0.00 0.00 39 1006.6
20260503201041 12 12 0.0 14.5 0.00 0.00 0.00 38 1006.7
20260503200553 13 66 1.6 14.5 0.00 0.00 0.00 40 1006.6
20260503200043 12 51 0.0 11.3 0.00 0.00 0.00 40 1006.8
20260503195618 12 57 1.6 11.3 0.00 0.00 0.00 39 1006.8
20260503195049 12 325 1.6 12.9 0.00 0.00 0.00 38 1007.0
20260503194621 12 278 1.6 14.5 0.00 0.00 0.00 39 1006.9
20260503194052 12 79 1.6 14.5 0.00 0.00 0.00 40 1006.9
20260503193542 12 344 0.0 22.5 0.00 0.00 0.00 40 1006.9
20260503193118 12 301 4.8 24.1 0.00 0.00 0.00 39 1007.0
20260503192547 11 257 3.2 24.1 0.00 0.00 0.00 39 1007.1
20260503192100 11 325 0.0 14.5 0.00 0.00 0.00 40 1007.1
20260503191611 11 251 1.6 14.5 0.00 0.00 0.00 40 1007.0
20260503191041 12 5 0.0 14.5 0.00 0.00 0.00 42 1007.1
20260503190554 11 49 1.6 19.3 0.00 0.00 0.00 43 1007.2
20260503190046 11 291 3.2 19.3 0.00 0.00 0.00 42 1007.3
20260503185600 11 232 0.0 8.0 0.00 0.00 0.00 41 1007.2
20260503185050 11 294 0.0 11.3 0.00 0.00 0.00 42 1007.3
20260503184604 12 350 1.6 12.9 0.00 0.00 0.00 40 1007.3
20260503184119 11 267 1.6 12.9 0.00 0.00 0.00 40 1007.1
20260503183551 11 263 0.0 16.1 0.00 0.00 0.00 42 1007.2
20260503183105 11 289 1.6 16.1 0.00 0.00 0.00 41 1007.2
20260503182614 11 302 1.6 27.4 0.00 0.00 0.00 42 1007.1
20260503182045 11 306 6.4 27.4 0.00 0.00 0.00 42 1007.4
20260503181559 11 277 1.6 29.0 0.00 0.00 0.00 42 1007.2
20260503181112 11 302 8.0 29.0 0.00 0.00 0.00 40 1007.2
20260503180605 11 256 0.0 11.3 0.00 0.00 0.00 41 1007.2
20260503180057 11 269 0.0 20.9 0.00 0.00 0.00 40 1007.1
20260503175547 11 267 1.6 25.7 0.00 0.00 0.00 39 1007.1
20260503175059 11 317 8.0 25.7 0.00 0.00 0.00 37 1007.1
20260503174551 11 5 0.0 25.7 0.00 0.00 0.00 45 1007.1
20260503174044 11 282 4.8 19.3 0.00 0.00 0.00 40 1007.2
20260503173555 11 265 1.6 16.1 0.00 0.00 0.00 40 1007.2
20260503173046 11 16 0.0 8.0 0.00 0.00 0.00 40 1007.2
20260503172558 11 347 0.0 12.9 0.00 0.00 0.00 40 1007.2
20260503172113 11 355 1.6 20.9 0.00 0.00 0.00 39 1007.2
20260503171544 11 67 3.2 20.9 0.00 0.00 0.00 38 1007.1
20260503171057 11 290 3.2 20.9 0.00 0.00 0.00 41 1007.2
20260503170548 11 272 0.0 8.0 0.00 0.00 0.00 40 1007.1
20260503170122 11 88 0.0 22.5 0.00 0.00 0.00 41 1007.0